Time,TemperatureF,DewpointF,PressureIn,WindDirection,WindDirectionDegrees,WindSpeedMPH,WindSpeedGustMPH,Humidity,HourlyPrecipIn,Conditions,Clouds,dailyrainin,SoftwareType,DateUTC
2013-06-30 00:02:00,67.0,62.0,-100.00,NW,320,6.0,12.0,84,0.00,,,-99.99,,2013-06-30 05:02:00,
2013-06-30 00:22:00,67.0,61.0,-100.00,NW,320,6.0,9.0,82,0.00,,,-99.99,,2013-06-30 05:22:00,
2013-06-30 00:33:00,67.0,61.0,-100.00,NW,320,6.0,9.0,82,0.00,,,-99.99,,2013-06-30 05:33:00,
2013-06-30 00:43:00,66.0,61.0,-100.00,NNW,340,6.0,11.0,83,0.00,,,-99.99,,2013-06-30 05:43:00,
2013-06-30 01:23:00,66.0,61.0,-100.00,NNW,345,7.0,10.0,83,0.00,,,-99.99,,2013-06-30 06:23:00,
2013-06-30 01:34:00,66.0,61.0,-100.00,NNW,335,6.0,10.0,84,0.00,,,-99.99,,2013-06-30 06:34:00,
2013-06-30 01:43:00,66.0,61.0,-100.00,NW,325,7.0,10.0,84,0.00,,,-99.99,,2013-06-30 06:43:00,
2013-06-30 02:02:00,66.0,61.0,-100.00,NNW,340,7.0,10.0,84,0.00,,,-99.99,,2013-06-30 07:02:00,
2013-06-30 02:12:00,66.0,61.0,-100.00,NNW,340,7.0,10.0,84,0.00,,,-99.99,,2013-06-30 07:12:00,
2013-06-30 02:33:00,65.0,61.0,-100.00,NNW,330,6.0,11.0,85,0.00,,,-99.99,,2013-06-30 07:33:00,
2013-06-30 02:44:00,65.0,61.0,-100.00,NW,325,6.0,11.0,85,0.00,,,-99.99,,2013-06-30 07:44:00,
2013-06-30 02:53:00,65.0,61.0,-100.00,NW,310,7.0,10.0,86,0.00,,,-99.99,,2013-06-30 07:53:00,
2013-06-30 03:02:00,65.0,61.0,-100.00,NW,310,7.0,10.0,86,0.00,,,-99.99,,2013-06-30 08:02:00,
2013-06-30 03:22:00,65.0,61.0,-100.00,NW,325,6.0,9.0,86,0.00,,,-99.99,,2013-06-30 08:22:00,
2013-06-30 03:33:00,65.0,61.0,-100.00,NW,320,6.0,9.0,86,0.00,,,-99.99,,2013-06-30 08:33:00,
2013-06-30 03:42:00,65.0,61.0,-100.00,NNW,330,6.0,9.0,86,0.00,,,-99.99,,2013-06-30 08:42:00,
2013-06-30 04:12:00,65.0,61.0,-100.00,NNW,335,5.0,8.0,87,0.00,,,-99.99,,2013-06-30 09:12:00,
2013-06-30 04:34:00,64.0,61.0,-100.00,NNW,335,5.0,7.0,87,0.00,,,-99.99,,2013-06-30 09:34:00,
2013-06-30 04:43:00,64.0,61.0,-100.00,NNW,330,6.0,9.0,87,0.00,,,-99.99,,2013-06-30 09:43:00,
2013-06-30 05:02:00,65.0,61.0,-100.00,NNW,335,6.0,9.0,87,0.00,,,-99.99,,2013-06-30 10:02:00,
2013-06-30 05:33:00,65.0,61.0,-100.00,NNW,335,7.0,10.0,85,0.00,,,-99.99,,2013-06-30 10:33:00,
2013-06-30 05:42:00,65.0,60.0,-100.00,NNW,340,6.0,10.0,84,0.00,,,-99.99,,2013-06-30 10:42:00,
2013-06-30 05:53:00,65.0,60.0,-100.00,NNW,340,6.0,9.0,84,0.00,,,-99.99,,2013-06-30 10:53:00,
2013-06-30 06:22:00,65.0,60.0,-100.00,NNW,335,6.0,11.0,84,0.00,,,-99.99,,2013-06-30 11:22:00,
2013-06-30 06:33:00,65.0,60.0,-100.00,NW,320,6.0,9.0,85,0.00,,,-99.99,,2013-06-30 11:33:00,
2013-06-30 06:43:00,65.0,60.0,-100.00,NW,315,6.0,8.0,84,0.00,,,-99.99,,2013-06-30 11:43:00,
2013-06-30 07:11:00,65.0,60.0,-100.00,NW,320,7.0,11.0,84,0.00,,,-99.99,,2013-06-30 12:11:00,
2013-06-30 07:24:00,66.0,60.0,-100.00,NNW,330,6.0,9.0,81,0.00,,,-99.99,,2013-06-30 12:24:00,
2013-06-30 07:33:00,66.0,59.0,-100.00,NNW,340,8.0,16.0,79,0.00,,,-99.99,,2013-06-30 12:33:00,
2013-06-30 07:43:00,66.0,59.0,-100.00,North,350,7.0,13.0,76,0.00,,,-99.99,,2013-06-30 12:43:00,
2013-06-30 07:52:00,66.0,59.0,-100.00,North,350,7.0,13.0,76,0.00,,,-99.99,,2013-06-30 12:52:00,
2013-06-30 08:02:00,66.0,58.0,-100.00,North,350,12.0,17.0,75,0.00,,,-99.99,,2013-06-30 13:02:00,
2013-06-30 08:12:00,66.0,58.0,-100.00,NNW,345,11.0,19.0,75,0.00,,,-99.99,,2013-06-30 13:12:00,
2013-06-30 08:22:00,67.0,58.0,-100.00,North,5,9.0,16.0,73,0.00,,,-99.99,,2013-06-30 13:22:00,
2013-06-30 08:34:00,67.0,58.0,-100.00,North,5,9.0,16.0,73,0.00,,,-99.99,,2013-06-30 13:34:00,
2013-06-30 08:43:00,67.0,58.0,-100.00,North,350,11.0,17.0,71,0.00,,,-99.99,,2013-06-30 13:43:00,
2013-06-30 09:02:00,69.0,57.0,-100.00,North,350,9.0,17.0,66,0.00,,,-99.99,,2013-06-30 14:02:00,
2013-06-30 09:33:00,70.0,57.0,-100.00,North,5,10.0,17.0,61,0.00,,,-99.99,,2013-06-30 14:33:00,
2013-06-30 09:44:00,70.0,56.0,-100.00,North,5,14.0,19.0,59,0.00,,,-99.99,,2013-06-30 14:44:00,
2013-06-30 10:23:00,71.0,56.0,-100.00,North,10,10.0,19.0,59,0.00,,,-99.99,,2013-06-30 15:23:00,
2013-06-30 10:34:00,72.0,57.0,-100.00,North,350,9.0,13.0,57,0.00,,,-99.99,,2013-06-30 15:34:00,
2013-06-30 10:44:00,73.0,57.0,-100.00,North,5,7.0,16.0,57,0.00,,,-99.99,,2013-06-30 15:44:00,
2013-06-30 10:53:00,73.0,57.0,-100.00,NNE,20,12.0,17.0,56,0.00,,,-99.99,,2013-06-30 15:53:00,
2013-06-30 11:01:00,73.0,57.0,-100.00,NNE,20,12.0,17.0,56,0.00,,,-99.99,,2013-06-30 16:01:00,
2013-06-30 11:11:00,73.0,57.0,-100.00,North,5,11.0,17.0,55,0.00,,,-99.99,,2013-06-30 16:11:00,
2013-06-30 11:21:00,73.0,56.0,-100.00,NNW,345,13.0,18.0,56,0.00,,,-99.99,,2013-06-30 16:21:00,
2013-06-30 11:34:00,73.0,56.0,-100.00,NNW,345,13.0,18.0,56,0.00,,,-99.99,,2013-06-30 16:34:00,
2013-06-30 11:44:00,73.0,57.0,-100.00,NNE,20,9.0,17.0,56,0.00,,,-99.99,,2013-06-30 16:44:00,
2013-06-30 11:53:00,73.0,57.0,-100.00,NNE,20,9.0,17.0,56,0.00,,,-99.99,,2013-06-30 16:53:00,
2013-06-30 12:02:00,73.0,56.0,-100.00,North,0,14.0,17.0,56,0.00,,,-99.99,,2013-06-30 17:02:00,
2013-06-30 12:11:00,72.0,57.0,-100.00,North,350,16.0,21.0,57,0.00,,,-99.99,,2013-06-30 17:11:00,
2013-06-30 12:34:00,73.0,57.0,-100.00,NNW,345,10.0,16.0,57,0.00,,,-99.99,,2013-06-30 17:34:00,
2013-06-30 12:43:00,73.0,57.0,-100.00,North,5,9.0,17.0,56,0.00,,,-99.99,,2013-06-30 17:43:00,
2013-06-30 12:52:00,74.0,57.0,-100.00,North,5,12.0,16.0,55,0.00,,,-99.99,,2013-06-30 17:52:00,
2013-06-30 13:12:00,74.0,58.0,-100.00,NNW,340,9.0,17.0,55,0.00,,,-99.99,,2013-06-30 18:12:00,
2013-06-30 13:34:00,75.0,58.0,-100.00,NNW,340,10.0,15.0,54,0.00,,,-99.99,,2013-06-30 18:34:00,
2013-06-30 13:43:00,75.0,57.0,-100.00,North,5,11.0,18.0,52,0.00,,,-99.99,,2013-06-30 18:43:00,
2013-06-30 13:53:00,76.0,57.0,-100.00,NNW,345,13.0,17.0,52,0.00,,,-99.99,,2013-06-30 18:53:00,
2013-06-30 14:11:00,76.0,57.0,-100.00,North,5,10.0,17.0,52,0.00,,,-99.99,,2013-06-30 19:11:00,
2013-06-30 14:22:00,76.0,57.0,-100.00,North,5,12.0,17.0,51,0.00,,,-99.99,,2013-06-30 19:22:00,
2013-06-30 14:33:00,75.0,56.0,-100.00,North,350,12.0,19.0,51,0.00,,,-99.99,,2013-06-30 19:33:00,
2013-06-30 14:43:00,76.0,57.0,-100.00,NNW,345,9.0,18.0,52,0.00,,,-99.99,,2013-06-30 19:43:00,
2013-06-30 14:53:00,76.0,57.0,-100.00,NNW,345,9.0,18.0,52,0.00,,,-99.99,,2013-06-30 19:53:00,
2013-06-30 15:02:00,76.0,58.0,-100.00,NNW,335,7.0,17.0,52,0.00,,,-99.99,,2013-06-30 20:02:00,
2013-06-30 15:11:00,77.0,57.0,-100.00,North,5,9.0,17.0,49,0.00,,,-99.99,,2013-06-30 20:11:00,
2013-06-30 15:22:00,77.0,56.0,-100.00,North,350,10.0,17.0,47,0.00,,,-99.99,,2013-06-30 20:22:00,
2013-06-30 15:34:00,77.0,56.0,-100.00,North,350,10.0,17.0,47,0.00,,,-99.99,,2013-06-30 20:34:00,
2013-06-30 15:42:00,78.0,56.0,-100.00,NNW,345,7.0,22.0,47,0.00,,,-99.99,,2013-06-30 20:42:00,
2013-06-30 15:52:00,78.0,56.0,-100.00,NNW,345,13.0,18.0,47,0.00,,,-99.99,,2013-06-30 20:52:00,
2013-06-30 16:01:00,78.0,55.0,-100.00,NNW,345,14.0,23.0,46,0.00,,,-99.99,,2013-06-30 21:01:00,
2013-06-30 16:34:00,78.0,55.0,-100.00,NNE,25,14.0,22.0,45,0.00,,,-99.99,,2013-06-30 21:34:00,
2013-06-30 16:43:00,78.0,56.0,-100.00,NNW,345,13.0,19.0,45,0.00,,,-99.99,,2013-06-30 21:43:00,
2013-06-30 17:11:00,79.0,54.0,-100.00,North,5,12.0,19.0,43,0.00,,,-99.99,,2013-06-30 22:11:00,
2013-06-30 17:22:00,79.0,54.0,-100.00,North,5,12.0,19.0,43,0.00,,,-99.99,,2013-06-30 22:22:00,
2013-06-30 17:34:00,79.0,54.0,-100.00,North,355,11.0,19.0,42,0.00,,,-99.99,,2013-06-30 22:34:00,
2013-06-30 17:43:00,79.0,54.0,-100.00,North,5,12.0,21.0,42,0.00,,,-99.99,,2013-06-30 22:43:00,
2013-06-30 18:11:00,78.0,53.0,-100.00,NNE,25,9.0,19.0,41,0.00,,,-99.99,,2013-06-30 23:11:00,
2013-06-30 18:22:00,78.0,53.0,-100.00,North,5,10.0,17.0,40,0.00,,,-99.99,,2013-06-30 23:22:00,
2013-06-30 18:33:00,78.0,52.0,-100.00,North,5,9.0,17.0,40,0.00,,,-99.99,,2013-06-30 23:33:00,
2013-06-30 18:43:00,78.0,52.0,-100.00,NNW,345,10.0,16.0,40,0.00,,,-99.99,,2013-06-30 23:43:00,
2013-06-30 18:53:00,78.0,52.0,-100.00,NNW,345,10.0,16.0,40,0.00,,,-99.99,,2013-06-30 23:53:00,
2013-06-30 19:01:00,78.0,52.0,-100.00,NNW,335,11.0,13.0,40,0.00,,,-99.99,,2013-07-01 00:01:00,
2013-06-30 19:33:00,78.0,52.0,-100.00,NNW,345,9.0,16.0,40,0.00,,,-99.99,,2013-07-01 00:33:00,
2013-06-30 19:42:00,78.0,52.0,-100.00,North,5,6.0,12.0,40,0.00,,,-99.99,,2013-07-01 00:42:00,
2013-06-30 19:52:00,78.0,52.0,-100.00,NNE,15,8.0,12.0,40,0.00,,,-99.99,,2013-07-01 00:52:00,
2013-06-30 20:22:00,77.0,52.0,-100.00,North,5,6.0,10.0,41,0.00,,,-99.99,,2013-07-01 01:22:00,
2013-06-30 20:33:00,76.0,52.0,-100.00,NNW,345,7.0,13.0,42,0.00,,,-99.99,,2013-07-01 01:33:00,
2013-06-30 20:42:00,76.0,51.0,-100.00,NNW,340,11.0,15.0,42,0.00,,,-99.99,,2013-07-01 01:42:00,
2013-06-30 20:52:00,75.0,51.0,-100.00,North,350,9.0,13.0,43,0.00,,,-99.99,,2013-07-01 01:52:00,
2013-06-30 21:11:00,74.0,51.0,-100.00,NNW,345,10.0,16.0,44,0.00,,,-99.99,,2013-07-01 02:11:00,
2013-06-30 21:22:00,74.0,51.0,-100.00,NNW,340,9.0,14.0,45,0.00,,,-99.99,,2013-07-01 02:22:00,
2013-06-30 21:33:00,73.0,52.0,-100.00,NNW,345,9.0,12.0,46,0.00,,,-99.99,,2013-07-01 02:33:00,
2013-06-30 21:44:00,72.0,52.0,-100.00,North,350,8.0,14.0,47,0.00,,,-99.99,,2013-07-01 02:44:00,
2013-06-30 22:01:00,72.0,52.0,-100.00,NNW,345,9.0,13.0,48,0.00,,,-99.99,,2013-07-01 03:01:00,
2013-06-30 22:11:00,72.0,52.0,-100.00,NNW,345,7.0,12.0,50,0.00,,,-99.99,,2013-07-01 03:11:00,
2013-06-30 22:23:00,71.0,52.0,-100.00,NNW,345,8.0,11.0,51,0.00,,,-99.99,,2013-07-01 03:23:00,
2013-06-30 22:33:00,71.0,52.0,-100.00,NNW,345,8.0,11.0,51,0.00,,,-99.99,,2013-07-01 03:33:00,
2013-06-30 22:43:00,70.0,53.0,-100.00,North,350,7.0,10.0,55,0.00,,,-99.99,,2013-07-01 03:43:00,
2013-06-30 22:52:00,70.0,53.0,-100.00,North,350,7.0,10.0,55,0.00,,,-99.99,,2013-07-01 03:52:00,
2013-06-30 23:01:00,70.0,54.0,-100.00,NNW,330,5.0,9.0,56,0.00,,,-99.99,,2013-07-01 04:01:00,
2013-06-30 23:11:00,69.0,54.0,-100.00,NNW,335,6.0,10.0,58,0.00,,,-99.99,,2013-07-01 04:11:00,
2013-06-30 23:32:00,69.0,55.0,-100.00,NNW,340,7.0,10.0,60,0.00,,,-99.99,,2013-07-01 04:32:00,
2013-06-30 23:43:00,68.0,55.0,-100.00,NNW,345,6.0,7.0,64,0.00,,,-99.99,,2013-07-01 04:43:00,